Flag for U.S.A. Weather past 2 weeks in Boulder, Colorado, U.S.A.

Now
73 °F

Scattered clouds.


Feels Like: 77 °F
Forecast: 66 / 88 °F
Wind: No wind

Location: Broomfield / Jeffco

Current Time: Jul 5, 2015 at 8:25:42 AM

Latest Report: Jul 5, 2015 at 7:56 AM


Visibility: 40 mi

Pressure: 30.03 "Hg (24.90 "Hg at 1623m altitude)

Humidity: 53%

Dew point: 55 °F

Location of BoulderLocation

Historic Weather in Boulder — Graph

°F

Boulder temperature yesterday

Maximum temperature yesterday: 91 °F (at 3:50 PM)
Minimum temperature yesterday: 59 °F (at 3:36 AM)
Average temperature yesterday: 71 °F

Past Weeks' High & Low Weather Summary

 TemperatureHumidityPressure
High93 °F (Jun 30, 2:50 PM)94% (Jul 2, 6:48 AM)30.35 "Hg (Jul 2, 6:48 AM)
Low57 °F (Jul 2, 6:48 AM)15% (Jun 30, 1:45 PM)29.94 "Hg (Jun 21, 6:56 PM)
Average70 °F57%30.17 "Hg
* Reported Jun 20 6:47 AM — Jul 5 6:45 AM, Boulder, Weather by CustomWeather, © 2015

Note: Actual official high and low records may vary slightly from our data, if they occured in-between our weather recording intervals... More about our weather records

Advertising

Boulder weather history for previous 24 hours

 ConditionsComfort  
Time TempWeatherWind HumidityBarometerVisibility
6:45 AM
Sun, Jul 5
66 °FScattered clouds.No wind56%30.03 "Hg30 mi
5:56 AM66 °FClear.No wind56%30.02 "Hg10 mi
5:36 AM64 °FClear.No wind60%30.02 "Hg10 mi
5:16 AM70 °FClear.6 mph40%30.01 "Hg10 mi
4:56 AM66 °FClear.5 mph56%30.01 "Hg10 mi
4:36 AM68 °FClear.No wind53%30.00 "Hg10 mi
4:15 AM70 °FClear.3 mph43%30.00 "Hg10 mi
3:55 AM70 °FClear.No wind43%30.01 "Hg10 mi
3:35 AM64 °FClear.9 mph60%30.00 "Hg10 mi
3:15 AM64 °FClear.8 mph60%30.01 "Hg10 mi
2:56 AM66 °FClear.3 mph56%30.01 "Hg10 mi
2:36 AM64 °FClear.No wind60%30.02 "Hg10 mi
2:15 AM66 °FClear.5 mph56%30.01 "Hg10 mi
1:56 AM64 °FClear.7 mph60%30.02 "Hg10 mi
1:36 AM64 °FClear.6 mph64%30.03 "Hg10 mi
1:16 AM68 °FClear.3 mph56%30.02 "Hg10 mi
12:56 AM72 °FClear.No wind44%30.02 "Hg10 mi
12:36 AM70 °FClear.No wind50%30.03 "Hg10 mi
12:16 AM72 °FClear.5 mph47%30.04 "Hg10 mi
11:56 PM
Sat, Jul 4
70 °FClear.5 mph50%30.03 "Hg10 mi
11:36 PM73 °FClear.No wind38%30.04 "Hg10 mi
11:16 PM73 °FClear.3 mph38%30.04 "Hg10 mi
9:47 PM75 °FPartly cloudy.8 mph36%30.01 "Hg25 mi
8:45 PM73 °FDrizzle. Broken clouds.17 mph44%30.03 "Hg25 mi
7:46 PM81 °FPleasantly warm.No wind30%30.05 "HgN/A
6:46 PM79 °FBroken clouds.10 mph42%30.01 "Hg25 mi
4:45 PM75 °FBroken clouds.8 mph50%30.01 "Hg30 mi
3:50 PM91 °FScattered showers. Partly sunny.5 mph18%30.00 "Hg30 mi
1:53 PM90 °FScattered clouds.6 mph22%30.02 "Hg20 mi
12:45 PM90 °FScattered clouds.5 mph27%30.02 "Hg15 mi
11:47 AM86 °FHaze.6 mph33%30.03 "Hg30 mi
10:45 AM82 °FHaze.5 mph40%30.04 "Hg30 mi
9:46 AM75 °FPassing clouds.6 mph57%30.05 "Hg30 mi
8:48 AM73 °FPassing clouds.6 mph61%30.05 "Hg40 mi
Weather by CustomWeather, © 2015

See weather overviewHow to use our weather pages